Monticello, AR

11:32 PM CDT on March 24, 2017 (GMT -0500)
Monticello Municipal-Ellis

Weather History for KLLQ - November, 2012

Change the Weather History Date:

Tuesday, November 13, 2012

  Actual Average Record
Temperature  
Mean Temperature 44 °F -  
Max Temperature 55 °F 63 °F 86 °F (1955)
Min Temperature 32 °F 38 °F 24 °F (1986)
Degree Days  
Heating Degree Days 22    
Moisture  
Dew Point 30 °F    
Average Humidity 65    
Maximum Humidity 92    
Minimum Humidity 34    
Precipitation  
Precipitation 0.00 in - - ()
Sea Level Pressure  
Sea Level Pressure 30.46 in    
Wind  
Wind Speed 3 mph (NNE)    
Max Wind Speed 10 mph    
Max Gust Speed -    
Visibility 10 miles    
Events      
Averages and records for this station are not official NWS values.
T = Trace of Precipitation, MM = Missing Value Source: NWS Daily Summary

Daily Weather History Graph

Daily Weather History Graph

Search for Another Location

Airport or City:

Trip Planner

Search our weather history database for the weather conditions in past years. The results will help you decide how hot, cold, wet, or windy it might be!

Date:

Astronomy

Nov. 13, 2012 Rise Set
Actual Time 6:37 AM CST 5:04 PM CST
Civil Twilight 6:11 AM CST 5:31 PM CST
Nautical Twilight 5:41 AM CST 6:01 PM CST
Astronomical Twilight 5:11 AM CST 6:30 PM CST
Moon 6:15 AM CST (11/13) 4:59 PM CST (11/13)
Length of Visible Light 11h 20m
Length of Day
10h 27m
Waning Crescent, 0% of the Moon is Illuminated
Nov 13
Waning Crescent
Nov 13
New
Nov 20
First Quarter
Nov 28
Full
Dec 6
Last Quarter

Hourly Weather History & Observations

Time (CST) Temp. Windchill Dew Point Humidity Pressure Visibility Wind Dir Wind Speed Gust Speed Precip Events Conditions
12:53 AM 33.1 °F - 30.9 °F 92% 30.48 in 7.0 mi Calm Calm - N/A   Clear
1:53 AM 32.0 °F - 30.0 °F 92% 30.47 in 10.0 mi Calm Calm - N/A   Clear
2:53 AM 36.0 °F 33.3 °F 28.9 °F 76% 30.48 in 10.0 mi NW 3.5 mph - N/A   Clear
3:53 AM 37.0 °F 34.5 °F 30.0 °F 76% 30.49 in 10.0 mi NW 3.5 mph - N/A   Clear
4:53 AM 35.1 °F - 28.9 °F 78% 30.51 in 10.0 mi Calm Calm - N/A   Clear
5:53 AM 35.1 °F 32.2 °F 30.0 °F 82% 30.51 in 10.0 mi Variable 3.5 mph - N/A   Clear
6:53 AM 36.0 °F 33.3 °F 30.0 °F 79% 30.52 in 10.0 mi Variable 3.5 mph - N/A   Clear
7:53 AM 39.0 °F 34.0 °F 32.0 °F 76% 30.53 in 10.0 mi NE 6.9 mph - N/A   Clear
8:53 AM 46.0 °F 41.0 °F 30.9 °F 56% 30.53 in 10.0 mi ENE 10.4 mph - N/A   Clear
9:53 AM 50.0 °F - 30.0 °F 46% 30.54 in 10.0 mi ENE 9.2 mph - N/A   Clear
10:53 AM 52.0 °F - 27.0 °F 38% 30.52 in 10.0 mi NE 10.4 mph - N/A   Clear
11:53 AM 53.1 °F - 28.0 °F 38% 30.48 in 10.0 mi Variable 4.6 mph - N/A   Clear
12:53 PM 54.0 °F - 27.0 °F 35% 30.44 in 10.0 mi Variable 6.9 mph - N/A   Clear
1:53 PM 54.0 °F - 27.0 °F 35% 30.42 in 10.0 mi NE 4.6 mph - N/A   Clear
2:53 PM 55.0 °F - 27.0 °F 34% 30.39 in 10.0 mi NE 6.9 mph - N/A   Clear
3:53 PM 53.1 °F - 28.9 °F 40% 30.39 in 10.0 mi Variable 5.8 mph - N/A   Clear
4:53 PM 48.9 °F - 30.9 °F 50% 30.39 in 10.0 mi Calm Calm - N/A   Clear
5:53 PM 44.1 °F - 33.1 °F 65% 30.40 in 10.0 mi Calm Calm - N/A   Clear
6:53 PM 39.9 °F - 33.1 °F 77% 30.41 in 10.0 mi Calm Calm - N/A   Clear
7:53 PM 36.0 °F - 33.1 °F 89% 30.41 in 10.0 mi Calm Calm - N/A   Clear
8:53 PM 36.0 °F - 33.1 °F 89% 30.42 in 10.0 mi Calm Calm - N/A   Clear
9:53 PM 41.0 °F 39.0 °F 32.0 °F 70% 30.43 in 10.0 mi North 3.5 mph - N/A   Clear
10:53 PM 41.0 °F - 32.0 °F 70% 30.42 in 10.0 mi Calm Calm - N/A   Clear
11:53 PM 39.9 °F - 32.0 °F 73% 30.41 in 10.0 mi Calm Calm - N/A   Clear